Showing default

JILIN-01 GAOFEN 3D 30, 52447

Orbit data source: Space-Track

JILIN-01 GAOFEN 3D 30, 52447 is a payload satellite owned by Changguang WJ (CN) in SSO that was launched on Thu, 05 May 2022 UTC via a CHANG ZHENG 2D launch vehicle from the Taiyaun Space Center, China (TSC). Payload-class satellites include a variety of spacecraft equipped with specific instruments for various scientific and technological missions. These include communications satellites like Starlink; space stations such as the ISS; scientific satellites like the Hubble; Earth observation satellites from companies like Planet Labs, Umbra, and HawkEye 360; GPS; miniature CubeSats for education and research; and military/defense satellites.

Not visible in the next 10 days
Identifier
52447, 2022-048E
Orbit
SSO
Country
Flag of CNCN / PRC
Related business
Manufacturer
Changguang WJ
Mission
Operational Commercial Imaging
Bus & Motor
JL-1, Unknown motor
Mass
42 kg wet, 42 kg dry
Launch date (UTC)
2022-05-05 (4 years ago)
Launch vehicle
CHANG ZHENG 2D
Launch site
Taiyaun Space Center, China (TSC)
Object type
Payload
Rocket body
Debris
Shape & HBR
Box + 2 Pan, 0.8 m
Radar Cross Section
2.000 m², Medium (>0.1 m² and < 1m²)

Expand to show TLE details & history
Last TLE update: 6 hours ago

TLE from 6 hours ago
0 JILIN-01 GAOFEN 3D 30
1 52447U 22048E   26163.85309088  .00443905  83946-4  10051-2 0  9995
2 52447  97.5637 281.4287 0004244 259.6190 100.4608 15.97559387229077
Epoch: 2026-06-12T20:28Z
TLE epoch observation values (Epoch: 2026-06-12T20:28:27.052Z)
Latitude
-0.00001°
Longitude
73.1394°
Altitude
284.897 km
Speed
7.736 km/s
True Right ascension
18h 45m 42s
True Declination
0° 00' 00"
Sunlit
Object was in full shadow at epoch
Visualization orbit readout
Latitude
Unknown
Longitude
Unknown
Altitude
Unknown
Speed
Unknown
Apparent Right ascension
Unknown
Apparent Declination
Unknown
Sunlit
N/A
Visualization observer readout
Local Sidereal Time
12:46:31
Azimuth
Unknown
Elevation
Unknown
Doppler factor
Unknown
Orbital elements
Apogee altitude
280.888 km
Perigee altitude
275.238 km
Semi-major axis
6,656.2 km
Eccentricity
0.00042
Inclination
97.5637°
RAAN
281.4287°
Arg. of periapsis
259.619°
True anomaly
100.50862°
Mean anomaly
100.4608°
Eccentric anomaly
100.48471°
Mean motion
3.99672 °/min
Orbital period
90.07 mins
BSTAR
0.0010051
Loading maneuver chart data...
Computing Atmospheric mass density...
Loading historical data...
Loading historical data...
Loading historical data...
Loading historical data...
Loading historical data...
Loading historical data...
Loading historical data...

Documentation

Showing up to 5 results
|